Location: Terschelling
(53.4100°N, 5.3500°E)
Time: 13:24:17
(UTC+01:00)

AO-85 - Visible Passes

Search period start: 01 December 2023 00:00
Search period end: 11 December 2023 00:00
Orbit: 516 x 753 km, 64.8° (Epoch: 04 January)

Date Brightness Start Highest point End Pass type
(mag) Time Alt. Az. Time Alt. Az. Time Alt. Az.
01 Dec ? 18:16:28 10° NW 18:19:25 18° N 18:20:49 16° NNE visible
01 Dec ? 19:57:08 10° NW 19:58:06 15° NNW 19:58:06 15° NNW visible
02 Dec ? 18:36:41 10° NW 18:39:46 19° N 18:40:07 19° NNE visible
02 Dec ? 20:16:55 10° NW 20:17:24 13° NNW 20:17:24 13° NNW visible
03 Dec ? 17:15:35 10° NW 17:18:37 19° N 17:21:48 10° NE visible
03 Dec ? 18:56:42 10° NW 18:59:26 21° N 18:59:26 21° N visible
03 Dec ? 20:36:40 10° NW 20:36:43 10° NW 20:36:43 10° NW visible
04 Dec ? 17:35:58 10° NW 17:38:56 18° N 17:41:28 12° NE visible
04 Dec ? 19:16:33 10° NW 19:18:46 22° N 19:18:46 22° N visible
05 Dec ? 17:56:08 10° NW 17:59:16 19° N 18:00:50 16° NE visible
05 Dec ? 19:36:17 10° NW 19:38:07 22° NNW 19:38:07 22° NNW visible
06 Dec ? 18:16:05 10° NW 18:19:31 22° NNE 18:20:13 22° NNE visible
06 Dec ? 19:56:00 10° NW 19:57:30 21° NNW 19:57:30 21° NNW visible
07 Dec ? 18:35:52 10° NW 18:39:38 29° NNE 18:39:38 29° NNE visible
07 Dec ? 20:15:45 10° NW 20:16:56 18° NW 20:16:56 18° NW visible
08 Dec ? 17:15:30 10° NW 17:18:41 20° N 17:21:49 11° ENE visible
08 Dec ? 18:55:35 10° NW 18:59:07 38° NNE 18:59:07 38° NNE visible
08 Dec ? 20:35:36 10° NW 20:36:25 15° NW 20:36:25 15° NW visible
09 Dec ? 17:35:23 10° NW 17:38:55 23° NNE 17:41:22 16° ENE visible
09 Dec ? 19:15:17 10° NW 19:18:41 48° NNW 19:18:41 48° NNW visible
09 Dec ? 20:55:39 10° WNW 20:55:59 12° WNW 20:55:59 12° WNW visible
10 Dec ? 17:55:08 10° NW 17:59:03 31° NNE 18:01:01 22° ENE visible
10 Dec ? 19:35:02 10° NW 19:38:20 49° NW 19:38:20 49° NW visible
